{"data":{"norad_id":54098,"epoch":"2026-05-24T23:05:29.834304Z","epoch_age_seconds":88492,"freshness":"FRESH","line1":"1 54098U 22136AZ  26144.96215086  .00009643  00000+0  62387-3 0  9994","line2":"2 54098  53.2124 352.0554 0001407 107.3187 252.7959 15.08796105198490","mean_motion":15.08796105,"eccentricity":0.0001407,"inclination_deg":53.2124,"raan_deg":352.0554,"arg_perigee_deg":107.3187,"mean_anomaly_deg":252.7959,"bstar":0.00062387,"rev_number":19849,"period_min":95.440331216921,"perigee_km":538.9041970226,"apogee_km":540.85092632025,"semimajor_km":6918.0145616714,"source":"CELESTRAK","updated_at":"2026-05-25T13:38:17.657013Z"}}